Time,TemperatureF,DewpointF,PressureIn,WindDirection,WindDirectionDegrees,WindSpeedMPH,WindSpeedGustMPH,Humidity,HourlyPrecipIn,Conditions,Clouds,dailyrainin,SoftwareType,DateUTC
2013-03-27 00:00:00,42.7,26.6,30.05,WNW,293,1.3,1.6,53,0.00,,,0.00,WUHU216HW,2013-03-27 04:00:00,
2013-03-27 00:05:00,42.5,26.6,30.05,WNW,293,1.8,1.8,53,0.00,,,0.00,WUHU216HW,2013-03-27 04:05:00,
2013-03-27 00:10:00,42.5,26.6,30.06,WNW,293,1.1,2.2,53,0.00,,,0.00,WUHU216HW,2013-03-27 04:10:00,
2013-03-27 00:15:00,42.3,26.4,30.06,WNW,293,0.4,2.2,53,0.00,,,0.00,WUHU216HW,2013-03-27 04:15:00,
2013-03-27 00:20:00,42.1,26.2,30.06,West,270,0.4,2.2,53,0.00,,,0.00,WUHU216HW,2013-03-27 04:20:00,
2013-03-27 00:25:00,42.1,26.2,30.06,West,270,1.1,2.0,53,0.00,,,0.00,WUHU216HW,2013-03-27 04:25:00,
2013-03-27 00:30:00,42.1,26.2,30.06,West,270,1.1,2.0,53,0.00,,,0.00,WUHU216HW,2013-03-27 04:30:00,
2013-03-27 00:35:00,41.9,26.5,30.06,West,270,1.3,2.0,54,0.00,,,0.00,WUHU216HW,2013-03-27 04:35:00,
2013-03-27 00:40:00,41.8,25.8,30.06,West,270,1.6,2.0,53,0.00,,,0.00,WUHU216HW,2013-03-27 04:40:00,
2013-03-27 00:45:00,41.8,26.3,30.06,West,270,0.9,1.6,54,0.00,,,0.00,WUHU216HW,2013-03-27 04:45:00,
2013-03-27 00:50:00,41.6,26.1,30.06,WNW,293,1.3,1.8,54,0.00,,,0.00,WUHU216HW,2013-03-27 04:50:00,
2013-03-27 00:55:00,41.6,26.1,30.06,West,270,1.1,1.8,54,0.00,,,0.00,WUHU216HW,2013-03-27 04:55:00,
2013-03-27 01:00:00,41.4,25.9,30.06,WSW,248,1.8,2.5,54,0.00,,,0.00,WUHU216HW,2013-03-27 05:00:00,
2013-03-27 01:05:00,41.4,25.9,30.06,West,270,2.0,2.5,54,0.00,,,0.00,WUHU216HW,2013-03-27 05:05:00,
2013-03-27 01:10:00,41.2,25.8,30.06,WNW,293,1.8,2.7,54,0.00,,,0.00,WUHU216HW,2013-03-27 05:10:00,
2013-03-27 01:15:00,41.0,26.0,30.06,West,270,1.8,2.7,55,0.00,,,0.00,WUHU216HW,2013-03-27 05:15:00,
2013-03-27 01:20:00,41.0,26.0,30.06,West,270,1.1,2.5,55,0.00,,,0.00,WUHU216HW,2013-03-27 05:20:00,
2013-03-27 01:25:00,41.0,26.0,30.06,SW,225,2.2,2.5,55,0.00,,,0.00,WUHU216HW,2013-03-27 05:25:00,
2013-03-27 01:30:00,40.9,25.8,30.06,SW,225,1.8,2.9,55,0.00,,,0.00,WUHU216HW,2013-03-27 05:30:00,
2013-03-27 01:35:00,40.7,25.7,30.06,WSW,248,2.5,2.9,55,0.00,,,0.00,WUHU216HW,2013-03-27 05:35:00,
2013-03-27 01:40:00,40.7,25.7,30.06,West,270,1.8,3.4,55,0.00,,,0.00,WUHU216HW,2013-03-27 05:40:00,
2013-03-27 01:45:00,40.7,26.1,30.06,WNW,293,1.1,3.4,56,0.00,,,0.00,WUHU216HW,2013-03-27 05:45:00,
2013-03-27 01:50:00,40.7,26.1,30.06,West,270,1.8,2.5,56,0.00,,,0.00,WUHU216HW,2013-03-27 05:50:00,
2013-03-27 01:55:00,40.5,25.9,30.06,NW,315,0.9,2.2,56,0.00,,,0.00,WUHU216HW,2013-03-27 05:55:00,
2013-03-27 02:00:00,40.5,25.9,30.06,WNW,293,1.3,2.2,56,0.00,,,0.00,WUHU216HW,2013-03-27 06:00:00,
2013-03-27 02:05:00,40.3,25.7,30.06,West,270,2.5,2.7,56,0.00,,,0.00,WUHU216HW,2013-03-27 06:05:00,
2013-03-27 02:10:00,40.1,26.0,30.06,WNW,293,1.1,2.9,57,0.00,,,0.00,WUHU216HW,2013-03-27 06:10:00,
2013-03-27 02:15:00,40.1,26.0,30.06,WNW,293,2.0,2.9,57,0.00,,,0.00,WUHU216HW,2013-03-27 06:15:00,
2013-03-27 02:20:00,40.0,25.8,30.06,West,270,1.3,2.5,57,0.00,,,0.00,WUHU216HW,2013-03-27 06:20:00,
2013-03-27 02:25:00,40.0,25.8,30.06,West,270,1.1,2.0,57,0.00,,,0.00,WUHU216HW,2013-03-27 06:25:00,
2013-03-27 02:30:00,40.0,25.8,30.06,WNW,293,0.9,1.8,57,0.00,,,0.00,WUHU216HW,2013-03-27 06:30:00,
2013-03-27 02:35:00,39.8,25.7,30.06,WSW,248,1.3,1.8,57,0.00,,,0.00,WUHU216HW,2013-03-27 06:35:00,
2013-03-27 02:40:00,39.8,25.7,30.06,West,270,0.4,1.6,57,0.00,,,0.00,WUHU216HW,2013-03-27 06:40:00,
2013-03-27 02:45:00,39.6,25.5,30.06,ENE,68,0.9,1.3,57,0.00,,,0.00,WUHU216HW,2013-03-27 06:45:00,
2013-03-27 02:50:00,39.6,25.5,30.06,NW,315,0.9,1.8,57,0.00,,,0.00,WUHU216HW,2013-03-27 06:50:00,
2013-03-27 02:55:00,39.4,25.7,30.06,WNW,293,0.9,1.8,58,0.00,,,0.00,WUHU216HW,2013-03-27 06:55:00,
2013-03-27 03:00:00,39.4,25.7,30.06,West,270,1.6,1.6,58,0.00,,,0.00,WUHU216HW,2013-03-27 07:00:00,
2013-03-27 03:05:00,39.2,25.6,30.06,West,270,0.7,1.8,58,0.00,,,0.00,WUHU216HW,2013-03-27 07:05:00,
2013-03-27 03:10:00,39.2,25.6,30.06,SW,225,1.1,1.8,58,0.00,,,0.00,WUHU216HW,2013-03-27 07:10:00,
2013-03-27 03:15:00,39.2,25.6,30.06,West,270,0.4,1.3,58,0.00,,,0.00,WUHU216HW,2013-03-27 07:15:00,
2013-03-27 03:20:00,39.1,25.8,30.06,West,270,0.7,1.8,59,0.00,,,0.00,WUHU216HW,2013-03-27 07:20:00,
2013-03-27 03:25:00,38.9,25.8,30.05,West,270,1.3,1.8,59,0.00,,,0.00,WUHU216HW,2013-03-27 07:25:00,
2013-03-27 03:30:00,38.9,25.8,30.05,West,270,1.1,1.8,59,0.00,,,0.00,WUHU216HW,2013-03-27 07:30:00,
2013-03-27 03:35:00,38.7,25.6,30.06,West,270,0.9,1.8,59,0.00,,,0.00,WUHU216HW,2013-03-27 07:35:00,
2013-03-27 03:40:00,38.7,25.6,30.05,West,270,0.7,1.8,59,0.00,,,0.00,WUHU216HW,2013-03-27 07:40:00,
2013-03-27 03:45:00,38.5,25.8,30.05,West,270,0.4,1.8,60,0.00,,,0.00,WUHU216HW,2013-03-27 07:45:00,
2013-03-27 03:50:00,38.5,25.8,30.05,WNW,293,0.4,1.8,60,0.00,,,0.00,WUHU216HW,2013-03-27 07:50:00,
2013-03-27 03:55:00,38.5,25.8,30.06,West,270,0.7,1.8,60,0.00,,,0.00,WUHU216HW,2013-03-27 07:55:00,
2013-03-27 04:00:00,38.5,25.8,30.06,WNW,293,0.4,1.6,60,0.00,,,0.00,WUHU216HW,2013-03-27 08:00:00,
2013-03-27 04:05:00,38.3,26.0,30.06,West,270,0.0,1.1,61,0.00,,,0.00,WUHU216HW,2013-03-27 08:05:00,
2013-03-27 04:10:00,38.3,25.7,30.06,NW,315,0.7,0.9,60,0.00,,,0.00,WUHU216HW,2013-03-27 08:10:00,
2013-03-27 04:15:00,38.2,25.8,30.06,West,270,1.3,1.3,61,0.00,,,0.00,WUHU216HW,2013-03-27 08:15:00,
2013-03-27 04:20:00,38.2,25.8,30.06,West,270,0.9,1.3,61,0.00,,,0.00,WUHU216HW,2013-03-27 08:20:00,
2013-03-27 04:25:00,38.0,25.8,30.06,WNW,293,1.1,1.6,61,0.00,,,0.00,WUHU216HW,2013-03-27 08:25:00,
2013-03-27 04:30:00,38.0,25.8,30.06,West,270,0.9,1.6,61,0.00,,,0.00,WUHU216HW,2013-03-27 08:30:00,
2013-03-27 04:35:00,37.8,25.6,30.06,NW,315,0.0,1.6,61,0.00,,,0.00,WUHU216HW,2013-03-27 08:35:00,
2013-03-27 04:40:00,37.8,25.6,30.06,WSW,248,0.0,1.3,61,0.00,,,0.00,WUHU216HW,2013-03-27 08:40:00,
2013-03-27 04:45:00,37.8,25.9,30.06,West,270,1.1,1.1,62,0.00,,,0.00,WUHU216HW,2013-03-27 08:45:00,
2013-03-27 04:50:00,37.8,25.9,30.06,West,270,0.7,1.1,62,0.00,,,0.00,WUHU216HW,2013-03-27 08:50:00,
2013-03-27 04:55:00,37.8,25.9,30.06,West,270,0.4,1.1,62,0.00,,,0.00,WUHU216HW,2013-03-27 08:55:00,
2013-03-27 05:00:00,37.6,25.4,30.06,SSW,203,0.0,0.7,61,0.00,,,0.00,WUHU216HW,2013-03-27 09:00:00,
2013-03-27 05:05:00,37.4,25.2,30.06,ESE,113,0.0,0.7,61,0.00,,,0.00,WUHU216HW,2013-03-27 09:05:00,
2013-03-27 05:10:00,37.3,25.0,30.07,SE,135,0.0,0.2,61,0.00,,,0.00,WUHU216HW,2013-03-27 09:10:00,
2013-03-27 05:15:00,37.1,24.9,30.07,SSW,203,0.2,0.9,61,0.00,,,0.00,WUHU216HW,2013-03-27 09:15:00,
2013-03-27 05:20:00,37.1,25.3,30.07,SW,225,0.0,0.9,62,0.00,,,0.00,WUHU216HW,2013-03-27 09:20:00,
2013-03-27 05:25:00,37.1,25.3,30.07,SW,225,0.4,0.7,62,0.00,,,0.00,WUHU216HW,2013-03-27 09:25:00,
2013-03-27 05:30:00,36.9,25.5,30.07,WSW,248,0.4,0.9,63,0.00,,,0.00,WUHU216HW,2013-03-27 09:30:00,
2013-03-27 05:35:00,36.9,25.1,30.08,WSW,248,0.4,0.9,62,0.00,,,0.00,WUHU216HW,2013-03-27 09:35:00,
2013-03-27 05:40:00,36.9,25.5,30.08,WSW,248,0.2,1.1,63,0.00,,,0.00,WUHU216HW,2013-03-27 09:40:00,
2013-03-27 05:45:00,36.7,25.3,30.08,SW,225,0.2,1.1,63,0.00,,,0.00,WUHU216HW,2013-03-27 09:45:00,
2013-03-27 05:50:00,36.7,25.3,30.08,West,270,0.2,0.7,63,0.00,,,0.00,WUHU216HW,2013-03-27 09:50:00,
2013-03-27 05:55:00,36.5,25.1,30.08,SSE,158,0.0,0.4,63,0.00,,,0.00,WUHU216HW,2013-03-27 09:55:00,
2013-03-27 06:00:00,36.5,25.5,30.08,SSE,158,0.0,0.2,64,0.00,,,0.00,WUHU216HW,2013-03-27 10:00:00,
2013-03-27 06:05:00,36.4,25.4,30.08,SSE,158,0.2,0.2,64,0.00,,,0.00,WUHU216HW,2013-03-27 10:05:00,
2013-03-27 06:10:00,36.4,25.4,30.08,SE,135,0.0,0.2,64,0.00,,,0.00,WUHU216HW,2013-03-27 10:10:00,
2013-03-27 06:15:00,36.2,25.2,30.08,WSW,248,0.0,0.0,64,0.00,,,0.00,WUHU216HW,2013-03-27 10:15:00,
2013-03-27 06:20:00,36.0,25.0,30.08,ESE,113,0.0,0.4,64,0.00,,,0.00,WUHU216HW,2013-03-27 10:20:00,
2013-03-27 06:25:00,35.8,25.2,30.08,ESE,113,0.0,0.4,65,0.00,,,0.00,WUHU216HW,2013-03-27 10:25:00,
2013-03-27 06:30:00,35.6,25.0,30.09,ESE,113,0.0,0.2,65,0.00,,,0.00,WUHU216HW,2013-03-27 10:30:00,
2013-03-27 06:35:00,35.6,25.4,30.09,ESE,113,0.0,0.2,66,0.00,,,0.00,WUHU216HW,2013-03-27 10:35:00,
2013-03-27 06:40:00,35.5,25.2,30.09,East,90,0.0,0.4,66,0.00,,,0.00,WUHU216HW,2013-03-27 10:40:00,
2013-03-27 06:45:00,35.3,25.4,30.09,East,90,0.0,0.4,67,0.00,,,0.00,WUHU216HW,2013-03-27 10:45:00,
2013-03-27 06:50:00,35.1,25.2,30.10,SSW,203,0.0,0.4,67,0.00,,,0.00,WUHU216HW,2013-03-27 10:50:00,
2013-03-27 06:55:00,35.1,25.2,30.10,WSW,248,0.0,0.4,67,0.00,,,0.00,WUHU216HW,2013-03-27 10:55:00,
2013-03-27 07:00:00,35.1,25.2,30.10,West,270,0.0,0.4,67,0.00,,,0.00,WUHU216HW,2013-03-27 11:00:00,
2013-03-27 07:05:00,35.1,25.2,30.10,NW,315,0.0,0.4,67,0.00,,,0.00,WUHU216HW,2013-03-27 11:05:00,
2013-03-27 07:10:00,34.9,25.0,30.11,West,270,0.4,1.3,67,0.00,,,0.00,WUHU216HW,2013-03-27 11:10:00,
2013-03-27 07:15:00,34.9,25.0,30.11,WNW,293,0.2,1.3,67,0.00,,,0.00,WUHU216HW,2013-03-27 11:15:00,
2013-03-27 07:20:00,35.1,25.6,30.11,WNW,293,1.1,1.1,68,0.00,,,0.00,WUHU216HW,2013-03-27 11:20:00,
2013-03-27 07:25:00,35.3,25.4,30.11,WNW,293,1.1,1.6,67,0.00,,,0.00,WUHU216HW,2013-03-27 11:25:00,
2013-03-27 07:30:00,35.3,25.4,30.11,WNW,293,1.6,1.6,67,0.00,,,0.00,WUHU216HW,2013-03-27 11:30:00,
2013-03-27 07:35:00,35.5,25.6,30.11,West,270,0.9,1.6,67,0.00,,,0.00,WUHU216HW,2013-03-27 11:35:00,
2013-03-27 07:40:00,35.6,25.7,30.12,WNW,293,0.4,1.8,67,0.00,,,0.00,WUHU216HW,2013-03-27 11:40:00,
2013-03-27 07:45:00,35.8,25.9,30.12,West,270,1.1,1.8,67,0.00,,,0.00,WUHU216HW,2013-03-27 11:45:00,
2013-03-27 07:50:00,36.0,26.1,30.12,NW,315,0.4,1.8,67,0.00,,,0.00,WUHU216HW,2013-03-27 11:50:00,
2013-03-27 07:55:00,36.4,26.5,30.12,West,270,0.9,2.2,67,0.00,,,0.00,WUHU216HW,2013-03-27 11:55:00,
2013-03-27 08:00:00,36.4,26.1,30.12,NW,315,1.1,2.2,66,0.00,,,0.00,WUHU216HW,2013-03-27 12:00:00,
2013-03-27 08:05:00,36.5,26.3,30.13,West,270,1.6,2.5,66,0.00,,,0.00,WUHU216HW,2013-03-27 12:05:00,
2013-03-27 08:10:00,36.7,26.0,30.13,WNW,293,0.4,2.5,65,0.00,,,0.00,WUHU216HW,2013-03-27 12:10:00,
2013-03-27 08:15:00,36.9,26.2,30.13,West,270,1.3,2.5,65,0.00,,,0.00,WUHU216HW,2013-03-27 12:15:00,
2013-03-27 08:20:00,37.1,26.4,30.13,West,270,1.8,2.5,65,0.00,,,0.00,WUHU216HW,2013-03-27 12:20:00,
2013-03-27 08:25:00,37.3,26.6,30.13,WNW,293,1.1,2.2,65,0.00,,,0.00,WUHU216HW,2013-03-27 12:25:00,
2013-03-27 08:30:00,37.6,26.6,30.13,SW,225,1.3,2.0,64,0.00,,,0.00,WUHU216HW,2013-03-27 12:30:00,
2013-03-27 08:35:00,37.8,26.6,30.13,NW,315,2.2,3.1,64,0.00,,,0.00,WUHU216HW,2013-03-27 12:35:00,
2013-03-27 08:40:00,38.2,26.7,30.13,NNW,338,0.4,3.1,63,0.00,,,0.00,WUHU216HW,2013-03-27 12:40:00,
2013-03-27 08:45:00,38.5,26.9,30.14,NNW,338,1.3,3.1,63,0.00,,,0.00,WUHU216HW,2013-03-27 12:45:00,
2013-03-27 08:50:00,38.9,27.3,30.14,WNW,293,2.0,3.1,63,0.00,,,0.00,WUHU216HW,2013-03-27 12:50:00,
2013-03-27 08:55:00,39.4,27.4,30.13,WNW,293,1.8,3.6,62,0.00,,,0.00,WUHU216HW,2013-03-27 12:55:00,
2013-03-27 09:00:00,40.0,27.5,30.13,West,270,2.7,4.5,61,0.00,,,0.00,WUHU216HW,2013-03-27 13:00:00,
2013-03-27 09:05:00,40.3,27.5,30.14,NW,315,2.5,4.5,60,0.00,,,0.00,WUHU216HW,2013-03-27 13:05:00,
2013-03-27 09:10:00,40.9,27.2,30.14,NW,315,2.9,4.0,58,0.00,,,0.00,WUHU216HW,2013-03-27 13:10:00,
2013-03-27 09:15:00,40.9,27.2,30.13,West,270,3.1,4.0,58,0.00,,,0.00,WUHU216HW,2013-03-27 13:15:00,
2013-03-27 09:20:00,41.2,26.7,30.14,WNW,293,4.0,4.0,56,0.00,,,0.00,WUHU216HW,2013-03-27 13:20:00,
2013-03-27 09:25:00,41.4,26.8,30.13,NW,315,2.9,4.0,56,0.00,,,0.00,WUHU216HW,2013-03-27 13:25:00,
2013-03-27 09:30:00,41.8,27.2,30.14,NW,315,3.1,4.3,56,0.00,,,0.00,WUHU216HW,2013-03-27 13:30:00,
2013-03-27 09:35:00,41.8,26.7,30.14,NNW,338,0.9,4.7,55,0.00,,,0.00,WUHU216HW,2013-03-27 13:35:00,
2013-03-27 09:40:00,41.9,26.9,30.13,West,270,4.9,5.4,55,0.00,,,0.00,WUHU216HW,2013-03-27 13:40:00,
2013-03-27 09:45:00,42.1,26.7,30.13,West,270,4.7,5.4,54,0.00,,,0.00,WUHU216HW,2013-03-27 13:45:00,
2013-03-27 09:50:00,42.1,26.7,30.13,WNW,293,1.6,5.8,54,0.00,,,0.00,WUHU216HW,2013-03-27 13:50:00,
2013-03-27 09:55:00,42.3,26.7,30.13,WNW,293,1.3,5.8,54,0.00,,,0.00,WUHU216HW,2013-03-27 13:55:00,
2013-03-27 10:00:00,42.7,27.1,30.13,West,270,4.0,5.4,54,0.00,,,0.00,WUHU216HW,2013-03-27 14:00:00,
2013-03-27 10:05:00,42.7,26.6,30.13,NW,315,2.5,6.3,53,0.00,,,0.00,WUHU216HW,2013-03-27 14:05:00,
2013-03-27 10:10:00,42.8,26.5,30.13,WNW,293,2.5,6.5,52,0.00,,,0.00,WUHU216HW,2013-03-27 14:10:00,
2013-03-27 10:15:00,42.8,26.5,30.13,West,270,3.4,7.8,52,0.00,,,0.00,WUHU216HW,2013-03-27 14:15:00,
2013-03-27 10:20:00,43.0,26.2,30.13,NW,315,3.8,7.8,51,0.00,,,0.00,WUHU216HW,2013-03-27 14:20:00,
2013-03-27 10:25:00,43.4,26.9,30.13,SW,225,1.3,4.0,52,0.00,,,0.00,WUHU216HW,2013-03-27 14:25:00,
2013-03-27 10:30:00,43.7,27.3,30.13,NW,315,2.0,4.0,52,0.00,,,0.00,WUHU216HW,2013-03-27 14:30:00,
2013-03-27 10:35:00,44.3,26.8,30.14,West,270,1.8,6.9,50,0.00,,,0.00,WUHU216HW,2013-03-27 14:35:00,
2013-03-27 10:40:00,44.5,26.5,30.13,WNW,293,3.6,6.9,49,0.00,,,0.00,WUHU216HW,2013-03-27 14:40:00,
2013-03-27 10:45:00,44.8,25.8,30.13,NW,315,2.5,7.6,47,0.00,,,0.00,WUHU216HW,2013-03-27 14:45:00,
2013-03-27 10:50:00,44.8,24.7,30.13,NW,315,2.2,7.6,45,0.00,,,0.00,WUHU216HW,2013-03-27 14:50:00,
2013-03-27 10:55:00,45.0,25.9,30.13,North,0,1.1,6.3,47,0.00,,,0.00,WUHU216HW,2013-03-27 14:55:00,
2013-03-27 11:00:00,45.5,26.4,30.13,West,270,0.4,6.3,47,0.00,,,0.00,WUHU216HW,2013-03-27 15:00:00,
2013-03-27 11:05:00,45.9,25.1,30.13,North,0,4.7,6.7,44,0.00,,,0.00,WUHU216HW,2013-03-27 15:05:00,
2013-03-27 11:10:00,45.9,25.1,30.13,WNW,293,2.5,7.4,44,0.00,,,0.00,WUHU216HW,2013-03-27 15:10:00,
2013-03-27 11:15:00,46.1,25.7,30.13,NW,315,1.8,7.4,45,0.00,,,0.00,WUHU216HW,2013-03-27 15:15:00,
2013-03-27 11:20:00,46.4,25.6,30.13,West,270,2.5,5.4,44,0.00,,,0.00,WUHU216HW,2013-03-27 15:20:00,
2013-03-27 11:25:00,46.8,26.5,30.12,West,270,3.8,6.0,45,0.00,,,0.00,WUHU216HW,2013-03-27 15:25:00,
2013-03-27 11:30:00,47.2,26.2,30.12,NW,315,2.0,6.0,44,0.00,,,0.00,WUHU216HW,2013-03-27 15:30:00,
2013-03-27 11:35:00,47.3,26.4,30.12,NE,45,3.8,5.6,44,0.00,,,0.00,WUHU216HW,2013-03-27 15:35:00,
2013-03-27 11:40:00,47.3,25.3,30.12,WNW,293,1.6,6.3,42,0.00,,,0.00,WUHU216HW,2013-03-27 15:40:00,
2013-03-27 11:45:00,47.5,26.0,30.13,NW,315,2.5,7.2,43,0.00,,,0.00,WUHU216HW,2013-03-27 15:45:00,
2013-03-27 11:50:00,47.5,24.4,30.12,North,0,7.6,7.6,40,0.00,,,0.00,WUHU216HW,2013-03-27 15:50:00,
2013-03-27 11:55:00,47.3,24.2,30.12,West,270,3.1,7.6,40,0.00,,,0.00,WUHU216HW,2013-03-27 15:55:00,
2013-03-27 12:00:00,47.7,25.7,30.12,WSW,248,4.3,5.8,42,0.00,,,0.00,WUHU216HW,2013-03-27 16:00:00,
2013-03-27 12:05:00,47.9,25.7,30.12,WNW,293,3.4,5.6,42,0.00,,,0.00,WUHU216HW,2013-03-27 16:05:00,
2013-03-27 12:10:00,48.4,26.3,30.12,NW,315,2.9,4.3,42,0.00,,,0.00,WUHU216HW,2013-03-27 16:10:00,
2013-03-27 12:15:00,48.6,25.9,30.12,WSW,248,3.1,6.3,41,0.00,,,0.00,WUHU216HW,2013-03-27 16:15:00,
2013-03-27 12:20:00,48.4,25.8,30.12,NW,315,2.5,6.9,41,0.00,,,0.00,WUHU216HW,2013-03-27 16:20:00,
2013-03-27 12:25:00,49.0,26.2,30.12,NNW,338,1.3,6.9,41,0.00,,,0.00,WUHU216HW,2013-03-27 16:25:00,
2013-03-27 12:30:00,49.0,25.7,30.12,NW,315,3.4,5.1,40,0.00,,,0.00,WUHU216HW,2013-03-27 16:30:00,
2013-03-27 12:35:00,48.6,24.0,30.12,NNE,23,1.8,8.3,38,0.00,,,0.00,WUHU216HW,2013-03-27 16:35:00,
2013-03-27 12:40:00,48.6,24.7,30.11,NNW,338,1.8,8.3,39,0.00,,,0.00,WUHU216HW,2013-03-27 16:40:00,
2013-03-27 12:45:00,48.8,24.9,30.11,NNW,338,2.5,8.1,39,0.00,,,0.00,WUHU216HW,2013-03-27 16:45:00,
2013-03-27 12:50:00,48.6,24.7,30.11,NNW,338,3.1,8.1,39,0.00,,,0.00,WUHU216HW,2013-03-27 16:50:00,
2013-03-27 12:55:00,49.0,26.2,30.11,West,270,2.5,4.0,41,0.00,,,0.00,WUHU216HW,2013-03-27 16:55:00,
2013-03-27 13:00:00,49.9,25.8,30.11,North,0,2.7,4.5,39,0.00,,,0.00,WUHU216HW,2013-03-27 17:00:00,
2013-03-27 13:05:00,50.0,26.6,30.11,West,270,1.8,4.5,40,0.00,,,0.00,WUHU216HW,2013-03-27 17:05:00,
2013-03-27 13:10:00,50.0,25.9,30.11,West,270,3.1,4.5,39,0.00,,,0.00,WUHU216HW,2013-03-27 17:10:00,
2013-03-27 13:15:00,50.6,27.7,30.11,NNW,338,2.9,7.2,41,0.00,,,0.00,WUHU216HW,2013-03-27 17:15:00,
2013-03-27 13:20:00,50.4,25.6,30.11,NNW,338,4.0,8.3,38,0.00,,,0.00,WUHU216HW,2013-03-27 17:20:00,
2013-03-27 13:25:00,49.7,24.9,30.11,NW,315,2.0,8.3,38,0.00,,,0.00,WUHU216HW,2013-03-27 17:25:00,
2013-03-27 13:30:00,49.5,26.2,30.11,West,270,7.4,7.4,40,0.00,,,0.00,WUHU216HW,2013-03-27 17:30:00,
2013-03-27 13:35:00,50.2,27.9,30.11,West,270,2.5,7.4,42,0.00,,,0.00,WUHU216HW,2013-03-27 17:35:00,
2013-03-27 13:40:00,51.1,28.2,30.11,NW,315,2.5,7.4,41,0.00,,,0.00,WUHU216HW,2013-03-27 17:40:00,
2013-03-27 13:45:00,51.8,28.3,30.11,WSW,248,6.0,6.0,40,0.00,,,0.00,WUHU216HW,2013-03-27 17:45:00,
2013-03-27 13:50:00,52.7,27.7,30.11,NW,315,3.4,6.0,38,0.00,,,0.00,WUHU216HW,2013-03-27 17:50:00,
2013-03-27 13:55:00,53.3,28.9,30.10,SW,225,4.5,6.0,39,0.00,,,0.00,WUHU216HW,2013-03-27 17:55:00,
2013-03-27 14:00:00,54.0,28.8,30.10,West,270,4.0,7.6,38,0.00,,,0.00,WUHU216HW,2013-03-27 18:00:00,
2013-03-27 14:05:00,54.7,29.4,30.10,West,270,2.0,7.6,38,0.00,,,0.00,WUHU216HW,2013-03-27 18:05:00,
2013-03-27 14:10:00,55.4,27.3,30.10,SW,225,8.7,8.7,34,0.00,,,0.00,WUHU216HW,2013-03-27 18:10:00,
2013-03-27 14:15:00,55.1,28.4,30.10,West,270,6.0,8.7,36,0.00,,,0.00,WUHU216HW,2013-03-27 18:15:00,
2013-03-27 14:20:00,55.6,27.5,30.10,North,0,6.3,6.9,34,0.00,,,0.00,WUHU216HW,2013-03-27 18:20:00,
2013-03-27 14:25:00,55.1,26.3,30.09,NW,315,3.4,6.3,33,0.00,,,0.00,WUHU216HW,2013-03-27 18:25:00,
2013-03-27 14:30:00,54.9,28.3,30.09,SE,135,3.6,7.2,36,0.00,,,0.00,WUHU216HW,2013-03-27 18:30:00,
2013-03-27 14:35:00,55.1,27.7,30.09,NW,315,1.1,7.2,35,0.00,,,0.00,WUHU216HW,2013-03-27 18:35:00,
2013-03-27 14:40:00,54.7,26.0,30.09,NNW,338,2.5,6.0,33,0.00,,,0.00,WUHU216HW,2013-03-27 18:40:00,
2013-03-27 14:45:00,54.5,26.6,30.09,North,0,2.5,6.7,34,0.00,,,0.00,WUHU216HW,2013-03-27 18:45:00,
2013-03-27 14:50:00,54.5,27.9,30.08,West,270,5.4,6.7,36,0.00,,,0.00,WUHU216HW,2013-03-27 18:50:00,
2013-03-27 14:55:00,54.9,27.6,30.09,WNW,293,3.8,7.2,35,0.00,,,0.00,WUHU216HW,2013-03-27 18:55:00,
2013-03-27 15:00:00,55.3,27.2,30.08,West,270,5.6,7.6,34,0.00,,,0.00,WUHU216HW,2013-03-27 19:00:00,
2013-03-27 15:05:00,55.4,28.7,30.08,West,270,4.0,7.6,36,0.00,,,0.00,WUHU216HW,2013-03-27 19:05:00,
2013-03-27 15:10:00,55.4,28.0,30.08,NW,315,4.9,6.3,35,0.00,,,0.00,WUHU216HW,2013-03-27 19:10:00,
2013-03-27 15:15:00,55.8,27.6,30.08,WNW,293,4.9,6.7,34,0.00,,,0.00,WUHU216HW,2013-03-27 19:15:00,
2013-03-27 15:20:00,55.6,26.7,30.08,South,180,1.8,6.9,33,0.00,,,0.00,WUHU216HW,2013-03-27 19:20:00,
2013-03-27 15:25:00,55.1,26.3,30.08,South,180,3.6,6.9,33,0.00,,,0.00,WUHU216HW,2013-03-27 19:25:00,
2013-03-27 15:30:00,55.1,26.3,30.08,WNW,293,1.1,5.6,33,0.00,,,0.00,WUHU216HW,2013-03-27 19:30:00,
2013-03-27 15:35:00,55.3,27.2,30.08,WNW,293,3.8,7.4,34,0.00,,,0.00,WUHU216HW,2013-03-27 19:35:00,
2013-03-27 15:40:00,55.4,26.6,30.08,West,270,4.0,7.4,33,0.00,,,0.00,WUHU216HW,2013-03-27 19:40:00,
2013-03-27 15:45:00,55.4,25.2,30.08,North,0,2.7,7.4,31,0.00,,,0.00,WUHU216HW,2013-03-27 19:45:00,
2013-03-27 15:50:00,55.3,26.5,30.08,NW,315,2.7,7.4,33,0.00,,,0.00,WUHU216HW,2013-03-27 19:50:00,
2013-03-27 15:55:00,55.4,26.6,30.08,NW,315,4.0,5.4,33,0.00,,,0.00,WUHU216HW,2013-03-27 19:55:00,
2013-03-27 16:00:00,55.8,26.9,30.08,SW,225,4.3,8.1,33,0.00,,,0.00,WUHU216HW,2013-03-27 20:00:00,
2013-03-27 16:05:00,55.6,25.4,30.08,NW,315,2.9,8.1,31,0.00,,,0.00,WUHU216HW,2013-03-27 20:05:00,
2013-03-27 16:10:00,54.7,26.6,30.08,WNW,293,2.2,7.2,34,0.00,,,0.00,WUHU216HW,2013-03-27 20:10:00,
2013-03-27 16:15:00,54.4,26.4,30.08,West,270,4.0,6.0,34,0.00,,,0.00,WUHU216HW,2013-03-27 20:15:00,
2013-03-27 16:20:00,54.4,25.0,30.08,NW,315,4.0,5.6,32,0.00,,,0.00,WUHU216HW,2013-03-27 20:20:00,
2013-03-27 16:25:00,54.2,24.8,30.08,NW,315,2.5,5.6,32,0.00,,,0.00,WUHU216HW,2013-03-27 20:25:00,
2013-03-27 16:30:00,54.2,24.8,30.08,West,270,2.9,6.9,32,0.00,,,0.00,WUHU216HW,2013-03-27 20:30:00,
2013-03-27 16:35:00,53.8,24.6,30.08,West,270,5.6,7.6,32,0.00,,,0.00,WUHU216HW,2013-03-27 20:35:00,
2013-03-27 16:40:00,53.5,24.2,30.08,North,0,4.0,7.6,32,0.00,,,0.00,WUHU216HW,2013-03-27 20:40:00,
2013-03-27 16:45:00,52.9,24.5,30.07,NNW,338,1.8,5.6,33,0.00,,,0.00,WUHU216HW,2013-03-27 20:45:00,
2013-03-27 16:50:00,52.6,24.9,30.08,West,270,4.9,7.6,34,0.00,,,0.00,WUHU216HW,2013-03-27 20:50:00,
2013-03-27 16:55:00,52.6,23.4,30.08,North,0,2.5,7.6,32,0.00,,,0.00,WUHU216HW,2013-03-27 20:55:00,
2013-03-27 17:00:00,52.9,25.1,30.08,West,270,2.5,7.2,34,0.00,,,0.00,WUHU216HW,2013-03-27 21:00:00,
2013-03-27 17:05:00,52.4,22.6,30.08,North,0,5.1,8.7,31,0.00,,,0.00,WUHU216HW,2013-03-27 21:05:00,
2013-03-27 17:10:00,51.8,24.1,30.08,WSW,248,3.4,8.7,34,0.00,,,0.00,WUHU216HW,2013-03-27 21:10:00,
2013-03-27 17:15:00,52.2,23.8,30.08,WSW,248,3.6,7.8,33,0.00,,,0.00,WUHU216HW,2013-03-27 21:15:00,
2013-03-27 17:20:00,52.4,23.9,30.08,NNE,23,1.8,6.9,33,0.00,,,0.00,WUHU216HW,2013-03-27 21:20:00,
2013-03-27 17:25:00,52.4,23.9,30.08,NW,315,3.6,6.3,33,0.00,,,0.00,WUHU216HW,2013-03-27 21:25:00,
2013-03-27 17:30:00,52.0,23.0,30.09,North,0,3.4,6.5,32,0.00,,,0.00,WUHU216HW,2013-03-27 21:30:00,
2013-03-27 17:35:00,51.8,24.1,30.08,NW,315,2.5,6.5,34,0.00,,,0.00,WUHU216HW,2013-03-27 21:35:00,
2013-03-27 17:40:00,51.8,24.1,30.09,WSW,248,4.9,4.9,34,0.00,,,0.00,WUHU216HW,2013-03-27 21:40:00,
2013-03-27 17:45:00,51.8,24.1,30.09,SW,225,2.5,5.8,34,0.00,,,0.00,WUHU216HW,2013-03-27 21:45:00,
2013-03-27 17:50:00,51.8,23.5,30.09,WNW,293,4.0,7.2,33,0.00,,,0.00,WUHU216HW,2013-03-27 21:50:00,
2013-03-27 17:55:00,51.5,23.9,30.09,West,270,4.9,7.6,34,0.00,,,0.00,WUHU216HW,2013-03-27 21:55:00,
2013-03-27 18:00:00,51.5,24.5,30.09,West,270,2.0,7.6,35,0.00,,,0.00,WUHU216HW,2013-03-27 22:00:00,
2013-03-27 18:05:00,51.5,23.9,30.09,West,270,1.1,4.9,34,0.00,,,0.00,WUHU216HW,2013-03-27 22:05:00,
2013-03-27 18:10:00,51.5,24.5,30.10,WNW,293,2.2,4.7,35,0.00,,,0.00,WUHU216HW,2013-03-27 22:10:00,
2013-03-27 18:15:00,51.1,23.5,30.10,WSW,248,4.0,4.9,34,0.00,,,0.00,WUHU216HW,2013-03-27 22:15:00,
2013-03-27 18:20:00,50.9,24.8,30.09,WNW,293,2.5,4.9,36,0.00,,,0.00,WUHU216HW,2013-03-27 22:20:00,
2013-03-27 18:25:00,50.9,24.8,30.09,WNW,293,1.8,4.7,36,0.00,,,0.00,WUHU216HW,2013-03-27 22:25:00,
2013-03-27 18:30:00,50.8,24.6,30.10,NNE,23,2.5,4.7,36,0.00,,,0.00,WUHU216HW,2013-03-27 22:30:00,
2013-03-27 18:35:00,50.6,23.7,30.10,NW,315,1.3,4.0,35,0.00,,,0.00,WUHU216HW,2013-03-27 22:35:00,
2013-03-27 18:40:00,50.6,24.4,30.10,West,270,1.6,4.0,36,0.00,,,0.00,WUHU216HW,2013-03-27 22:40:00,
2013-03-27 18:45:00,50.4,22.9,30.10,NW,315,2.9,6.0,34,0.00,,,0.00,WUHU216HW,2013-03-27 22:45:00,
2013-03-27 18:50:00,50.0,24.0,30.10,WSW,248,2.5,6.0,36,0.00,,,0.00,WUHU216HW,2013-03-27 22:50:00,
2013-03-27 18:55:00,50.0,24.0,30.11,WNW,293,1.8,5.8,36,0.00,,,0.00,WUHU216HW,2013-03-27 22:55:00,
2013-03-27 19:00:00,50.0,24.0,30.11,WNW,293,3.4,5.8,36,0.00,,,0.00,WUHU216HW,2013-03-27 23:00:00,
2013-03-27 19:05:00,49.9,23.8,30.11,WNW,293,2.5,4.7,36,0.00,,,0.00,WUHU216HW,2013-03-27 23:05:00,
2013-03-27 19:10:00,49.5,23.4,30.11,West,270,3.4,4.5,36,0.00,,,0.00,WUHU216HW,2013-03-27 23:10:00,
2013-03-27 19:15:00,49.3,23.3,30.12,NW,315,1.8,4.5,36,0.00,,,0.00,WUHU216HW,2013-03-27 23:15:00,
2013-03-27 19:20:00,49.3,23.9,30.12,West,270,1.6,3.4,37,0.00,,,0.00,WUHU216HW,2013-03-27 23:20:00,
2013-03-27 19:25:00,49.1,23.8,30.11,NNW,338,2.5,3.6,37,0.00,,,0.00,WUHU216HW,2013-03-27 23:25:00,
2013-03-27 19:30:00,48.8,22.9,30.12,WSW,248,1.3,3.6,36,0.00,,,0.00,WUHU216HW,2013-03-27 23:30:00,
2013-03-27 19:35:00,48.2,22.3,30.12,North,0,2.7,7.8,36,0.00,,,0.00,WUHU216HW,2013-03-27 23:35:00,
2013-03-27 19:40:00,48.1,22.2,30.12,WNW,293,3.1,7.8,36,0.00,,,0.00,WUHU216HW,2013-03-27 23:40:00,
2013-03-27 19:45:00,47.9,22.7,30.13,WNW,293,2.2,6.3,37,0.00,,,0.00,WUHU216HW,2013-03-27 23:45:00,
2013-03-27 19:50:00,47.7,22.5,30.13,NW,315,3.1,3.1,37,0.00,,,0.00,WUHU216HW,2013-03-27 23:50:00,
2013-03-27 19:55:00,47.5,22.4,30.14,North,0,1.8,3.1,37,0.00,,,0.00,WUHU216HW,2013-03-27 23:55:00,
2013-03-27 20:00:00,47.2,22.1,30.14,NNW,338,1.1,3.1,37,0.00,,,0.00,WUHU216HW,2013-03-28 00:00:00,
2013-03-27 20:05:00,47.2,22.7,30.14,NW,315,2.0,2.5,38,0.00,,,0.00,WUHU216HW,2013-03-28 00:05:00,
2013-03-27 20:10:00,47.2,22.7,30.14,WNW,293,1.1,2.2,38,0.00,,,0.00,WUHU216HW,2013-03-28 00:10:00,
2013-03-27 20:15:00,47.0,22.6,30.14,NNW,338,1.1,2.9,38,0.00,,,0.00,WUHU216HW,2013-03-28 00:15:00,
2013-03-27 20:20:00,46.8,21.7,30.15,NNW,338,0.2,2.9,37,0.00,,,0.00,WUHU216HW,2013-03-28 00:20:00,
2013-03-27 20:25:00,46.4,21.4,30.15,WNW,293,1.8,2.7,37,0.00,,,0.00,WUHU216HW,2013-03-28 00:25:00,
2013-03-27 20:30:00,46.4,22.1,30.15,WNW,293,0.4,2.7,38,0.00,,,0.00,WUHU216HW,2013-03-28 00:30:00,
2013-03-27 20:35:00,46.3,21.9,30.15,NW,315,1.1,2.9,38,0.00,,,0.00,WUHU216HW,2013-03-28 00:35:00,
2013-03-27 20:40:00,46.3,21.9,30.15,NW,315,0.9,2.9,38,0.00,,,0.00,WUHU216HW,2013-03-28 00:40:00,
2013-03-27 20:45:00,46.3,21.9,30.16,West,270,1.1,1.8,38,0.00,,,0.00,WUHU216HW,2013-03-28 00:45:00,
2013-03-27 20:50:00,46.1,21.8,30.15,WNW,293,1.1,1.8,38,0.00,,,0.00,WUHU216HW,2013-03-28 00:50:00,
2013-03-27 20:55:00,45.7,21.4,30.16,NW,315,1.1,2.0,38,0.00,,,0.00,WUHU216HW,2013-03-28 00:55:00,
2013-03-27 21:00:00,45.7,22.1,30.16,NW,315,1.1,2.0,39,0.00,,,0.00,WUHU216HW,2013-03-28 01:00:00,
2013-03-27 21:05:00,45.4,21.8,30.16,NW,315,1.3,1.8,39,0.00,,,0.00,WUHU216HW,2013-03-28 01:05:00,
2013-03-27 21:10:00,45.2,21.6,30.16,NNW,338,0.7,1.8,39,0.00,,,0.00,WUHU216HW,2013-03-28 01:10:00,
2013-03-27 21:15:00,45.0,21.4,30.16,NW,315,1.1,2.5,39,0.00,,,0.00,WUHU216HW,2013-03-28 01:15:00,
2013-03-27 21:20:00,45.0,22.2,30.16,NW,315,0.9,2.5,40,0.00,,,0.00,WUHU216HW,2013-03-28 01:20:00,
2013-03-27 21:25:00,45.0,22.2,30.16,NW,315,1.1,2.2,40,0.00,,,0.00,WUHU216HW,2013-03-28 01:25:00,
2013-03-27 21:30:00,45.0,22.2,30.16,NNW,338,1.1,2.5,40,0.00,,,0.00,WUHU216HW,2013-03-28 01:30:00,
2013-03-27 21:35:00,44.8,22.0,30.16,WNW,293,1.1,2.5,40,0.00,,,0.00,WUHU216HW,2013-03-28 01:35:00,
2013-03-27 21:40:00,44.8,22.0,30.16,NW,315,1.1,1.8,40,0.00,,,0.00,WUHU216HW,2013-03-28 01:40:00,
2013-03-27 21:45:00,44.6,22.3,30.16,NW,315,0.9,1.3,41,0.00,,,0.00,WUHU216HW,2013-03-28 01:45:00,
2013-03-27 21:50:00,44.5,21.6,30.17,NW,315,0.7,1.1,40,0.00,,,0.00,WUHU216HW,2013-03-28 01:50:00,
2013-03-27 21:55:00,44.3,22.5,30.16,WNW,293,1.1,1.6,42,0.00,,,0.00,WUHU216HW,2013-03-28 01:55:00,
2013-03-27 22:00:00,44.3,22.5,30.16,WNW,293,0.4,1.6,42,0.00,,,0.00,WUHU216HW,2013-03-28 02:00:00,
2013-03-27 22:05:00,44.3,22.5,30.16,WNW,293,0.0,1.1,42,0.00,,,0.00,WUHU216HW,2013-03-28 02:05:00,
2013-03-27 22:10:00,44.3,22.5,30.16,East,90,0.2,0.4,42,0.00,,,0.00,WUHU216HW,2013-03-28 02:10:00,
2013-03-27 22:15:00,44.1,23.0,30.16,East,90,0.0,0.4,43,0.00,,,0.00,WUHU216HW,2013-03-28 02:15:00,
2013-03-27 22:20:00,43.9,22.8,30.16,SSW,203,0.0,0.4,43,0.00,,,0.00,WUHU216HW,2013-03-28 02:20:00,
2013-03-27 22:25:00,43.6,22.4,30.16,WSW,248,0.4,0.7,43,0.00,,,0.00,WUHU216HW,2013-03-28 02:25:00,
2013-03-27 22:30:00,43.6,23.0,30.16,West,270,0.2,0.9,44,0.00,,,0.00,WUHU216HW,2013-03-28 02:30:00,
2013-03-27 22:35:00,43.2,22.7,30.16,WNW,293,0.4,0.9,44,0.00,,,0.00,WUHU216HW,2013-03-28 02:35:00,
2013-03-27 22:40:00,43.0,22.5,30.16,WNW,293,0.4,0.7,44,0.00,,,0.00,WUHU216HW,2013-03-28 02:40:00,
2013-03-27 22:45:00,42.8,22.9,30.16,WNW,293,0.9,0.9,45,0.00,,,0.00,WUHU216HW,2013-03-28 02:45:00,
2013-03-27 22:50:00,42.8,22.9,30.16,WNW,293,0.4,0.9,45,0.00,,,0.00,WUHU216HW,2013-03-28 02:50:00,
2013-03-27 22:55:00,42.8,23.4,30.16,WNW,293,0.0,0.7,46,0.00,,,0.00,WUHU216HW,2013-03-28 02:55:00,
2013-03-27 23:00:00,42.8,23.4,30.16,ENE,68,0.0,0.2,46,0.00,,,0.00,WUHU216HW,2013-03-28 03:00:00,
2013-03-27 23:05:00,42.5,23.0,30.16,ESE,113,0.0,0.2,46,0.00,,,0.00,WUHU216HW,2013-03-28 03:05:00,
2013-03-27 23:10:00,42.5,23.6,30.17,West,270,0.7,0.7,47,0.00,,,0.00,WUHU216HW,2013-03-28 03:10:00,
2013-03-27 23:15:00,42.3,23.4,30.17,West,270,0.4,0.9,47,0.00,,,0.00,WUHU216HW,2013-03-28 03:15:00,
2013-03-27 23:20:00,42.3,23.4,30.17,West,270,1.1,1.1,47,0.00,,,0.00,WUHU216HW,2013-03-28 03:20:00,
2013-03-27 23:25:00,42.1,23.2,30.17,WNW,293,0.4,1.1,47,0.00,,,0.00,WUHU216HW,2013-03-28 03:25:00,
2013-03-27 23:30:00,42.1,23.2,30.17,WNW,293,1.1,1.1,47,0.00,,,0.00,WUHU216HW,2013-03-28 03:30:00,
2013-03-27 23:35:00,41.8,23.4,30.17,WNW,293,0.0,1.1,48,0.00,,,0.00,WUHU216HW,2013-03-28 03:35:00,
2013-03-27 23:40:00,41.8,23.4,30.17,West,270,0.4,0.9,48,0.00,,,0.00,WUHU216HW,2013-03-28 03:40:00,
2013-03-27 23:45:00,41.8,23.4,30.17,West,270,0.7,0.9,48,0.00,,,0.00,WUHU216HW,2013-03-28 03:45:00,
2013-03-27 23:50:00,41.6,23.2,30.17,SSE,158,0.2,1.3,48,0.00,,,0.00,WUHU216HW,2013-03-28 03:50:00,
2013-03-27 23:55:00,41.4,23.6,30.16,SW,225,0.0,1.3,49,0.00,,,0.00,WUHU216HW,2013-03-28 03:55:00,